Location: Amarillo Post Office Jordan Station
(35.1907°N, 101.9342°W)
Time: 16:56:46
(UTC+00:00)

Cosmos 1606 Rocket - Pass Details

Date: 24 January 2021
Orbit: 604 x 631 km, 82.5° (Epoch: 01 March)

Event Time Altitude Azimuth Distance (km) Brightness Sun altitude
Rises 12:39:37 0° 175° (S) 2,842 7.2 -14.9°
Reaches altitude 10° 12:41:51 10° 171° (S) 1,942 6.4 -14.4°
Maximum altitude 12:46:03 56° 94° (E) 720 4.3 -13.6°
Drops below altitude 10° 12:50:17 10° 16° (NNE) 1,957 6.1 -12.8°
Sets 12:52:32 0° 12° (NNE) 2,867 7.0 -12.3°
